Weather in Montijo

Portugal     38°42′22″N   8°58′29″W
temp.,
°C
wind,
m/s
gust,
m/s
humid.,
%
clouds,
%
prec.,
mm/h
press.,
hPa
HPBL,
m
15 may, sat
sat1501:00+16nw358484 0.0 1020242
04:00+15nw238840 0.0 1019184
07:00+15nw1386100 0.0 1019183
10:00+17wnw237880 0.0 1019295
13:00+22wnw4463100 0.0 1019346
16:00+22nw6763100 0.0 1018376
19:00+20nw5671100 0.0 1018240
22:00+18nw3584100 0.0 1019107
16 may, sun
sun1601:00+17wnw128786 0.0 101878
04:00+17w128655 0.0 1017110
07:00+17nw258984 0.0 1017353
10:00+18nnw238033 0.0 1018380
13:00+21nw7869100 0.0 1018434
16:00+21nw7965100 0.0 1017433
19:00+20nw7972100 0.0 1018433
22:00+17nnw49896 0.0 1019370
17 may, mon
mon1701:00+17nw378996 0.0 1018308
04:00+17nnw478696 0.0 1018599
07:00+17n4683100 0.1 1019565
10:00+18n566883 0.0 1021726
13:00+21nnw795199 0.0 1021477
16:00+21nnw894556 0.0 1021432
19:00+18n81052100 0.0 1021626
22:00+16nnw61162100 0.0 1023475
18 may, tue
tue1801:00+15n496499 0.0 1023416
04:00+15nnw376690 0.0 1022289
07:00+14nnw376895 0.0 1023275
10:00+19n465096 0.0 1023369
13:00+22n45481 0.0 1023364
16:00+23nnw78475 0.0 1022448
19:00+21nnw794969 0.0 1022275
22:00+17nnw485887 0.0 1023240
19 may, wed
wed1901:00+16n48615 0.0 1023245
04:00+15nnw346139 0.0 1022139
07:00+15nne34595 0.0 1022147
10:00+19nne3350100 0.0 1022219
13:00+23nne33435 0.0 1021331
16:00+26nnw673917 0.0 1020449
19:00+22nnw7104632 0.0 1020229
22:00+18nnw465440 0.0 1022109